This is the latest recevied weather packets stored in our database for station/object KM4NDN. If no packets are shown the sender has not sent any weather packets the latest 10 day(s).
| Time | Temp. | Humidity | Pressure | Rain* | Wind** | Luminosity | Snow |
|---|---|---|---|---|---|---|---|
| 1778045464 | 8.33° C | 97% | 1007.3 hPa | 0 mm | - | 0 W/m² | - |
| 1778045161 | 8.33° C | 97% | 1007.5 hPa | 0 mm | - | 0 W/m² | - |
| 1778044859 | 8.33° C | 97% | 1007.2 hPa | 1.78 mm | - | 0 W/m² | - |
| 1778044555 | 8.33° C | 97% | 1007.1 hPa | 1.78 mm | - | 0 W/m² | - |
| 1778044252 | 8.33° C | 97% | 1007 hPa | 0 mm | - | 0 W/m² | - |
| 1778043950 | 8.33° C | 97% | 1007.1 hPa | 1.27 mm | - | 0 W/m² | - |
| 1778043647 | 8.33° C | 97% | 1007.4 hPa | 1.27 mm | - | 0 W/m² | - |
| 1778043344 | 8.33° C | 97% | 1007.4 hPa | 1.78 mm | - | 0 W/m² | - |
| 1778043040 | 8.33° C | 97% | 1007.1 hPa | 3.05 mm | - | 0 W/m² | - |
| 1778042739 | 8.33° C | 97% | 1007.2 hPa | 3.05 mm | - | 0 W/m² | - |
| 1778042435 | 8.33° C | 97% | 1007.2 hPa | 4.83 mm | - | 0 W/m² | - |
| 1778042132 | 8.33° C | 97% | 1007.3 hPa | 1.27 mm | - | 0 W/m² | - |
| 1778041831 | 8.33° C | 96% | 1007.2 hPa | 1.78 mm | - | 0 W/m² | - |
| 1778041529 | 8.33° C | 96% | 1007.2 hPa | 3.05 mm | - | 0 W/m² | - |
| 1778041227 | 8.33° C | 96% | 1007.3 hPa | 1.78 mm | - | 0 W/m² | - |
| 1778040925 | 8.33° C | 96% | 1007.1 hPa | 3.05 mm | - | 0 W/m² | - |
| 1778040622 | 8.33° C | 96% | 1007.4 hPa | 3.05 mm | - | 0 W/m² | - |
| 1778040319 | 8.33° C | 96% | 1007.2 hPa | 1.78 mm | - | 0 W/m² | - |
| 1778040015 | 8.33° C | 96% | 1007.4 hPa | 1.27 mm | - | 0 W/m² | - |
| 1778039712 | 8.33° C | 96% | 1007.5 hPa | 1.27 mm | - | 0 W/m² | - |
| 1778039409 | 8.33° C | 96% | 1007.3 hPa | 1.78 mm | - | 0 W/m² | - |
| 1778039107 | 8.33° C | 96% | 1007.1 hPa | 3.05 mm | - | 0 W/m² | - |
| 1778038803 | 8.33° C | 96% | 1007.1 hPa | 1.27 mm | - | 0 W/m² | - |
| 1778038501 | 8.33° C | 96% | 1007.3 hPa | 1.78 mm | - | 0 W/m² | - |
| 1778038197 | 8.33° C | 96% | 1007.5 hPa | 1.27 mm | - | 0 W/m² | - |
* Rain latest hour (hover to see other rain measurements)
** Current wind speed in m/s (hover to see current wind gust speed)